Location: Foligno
(42.9600°N, 12.7050°E)
Time: 08:15:25
(UTC+02:00)

ISS - Pass Details

Date: 23 May 2018
Orbit: 402 x 407 km, 51.6° (Epoch: 24 May)

Event Time Altitude Azimuth Distance (km) Brightness Sun altitude
Rises 02:13:14 0° 305° (NW) 2,320 0.2 -24.6°
Reaches altitude 10° 02:15:31 10° 318° (NW) 1,458 -0.7 -24.5°
Maximum altitude 02:18:23 27° 19° (NNE) 803 -1.7 -24.4°
Drops below altitude 10° 02:21:14 10° 81° (E) 1,454 -0.7 -24.2°
Sets 02:23:30 0° 93° (E) 2,311 0.2 -24.0°
